SCP
0 0 0 0 0 0 0 0 0 0 0 0 0 1 1 2 2 2 3 2 2 2 2 3 4 5 5 5 6 6 6 7 7 8 8 6 5 3 2 2 2 2 2 2
0 0 0 0 0 0 0 0 0 0 0 0 0 1 1 2 2 2 3 2 2 2 2 2 3 4 5 5 6 6 6 6 8 9 9 7 5 3 3 2 2 2 2 2
0 0 0 0 0 0 0 0 0 0 0 0 0 1 1 2 2 2 2 2 2 2 2 1 2 4 5 5 5 5 6 7 9 11 11 9 7 5 4 3 3 3 2 2
0 0 0 0 0 0 0 0 0 0 0 0 0 1 1 2 2 2 2 1 1 2 2 1 2 3 4 4 5 5 6 8 11 13 13 11 9 7 5 5 4 3 2 2
0 0 0 0 0 0 0 0 0 0 0 0 0 0 1 2 2 2 2 2 2 2 2 2 2 3 4 4 4 6 7 9 12 14 14 13 11 8 7 5 4 3 2 1
0 0 0 0 0 0 0 0 0 0 0 0 0 0 1 1 2 2 2 2 2 2 3 4 4 3 3 4 4 5 7 8 10 13 14 13 11 9 7 6 4 3 2 1
0 0 0 0 0 0 0 0 0 0 0 0 0 0 0 1 1 2 2 2 2 3 4 5 5 4 4 4 4 4 6 6 8 11 13 13 11 9 7 6 4 3 2 2
0 0 0 0 0 0 0 0 0 0 0 0 0 0 0 1 1 2 2 2 2 2 3 4 4 4 4 4 4 5 5 5 6 8 10 11 10 9 7 6 4 3 3 3
0 0 0 0 0 0 0 0 0 0 0 0 0 0 0 1 1 2 2 2 2 2 2 2 3 4 5 5 6 5 5 5 6 6 8 9 9 7 5 5 4 4 4 4
0 0 0 0 0 0 0 0 0 0 0 0 0 0 0 0 1 1 2 1 1 1 1 2 3 4 5 6 6 5 4 5 6 7 8 8 8 6 5 4 4 5 5 5
0 0 0 0 0 0 0 0 0 0 0 0 0 0 0 0 1 1 1 1 1 1 1 2 3 4 5 5 5 3 3 4 6 8 9 9 8 6 5 4 5 5 5 5
0 0 0 0 0 0 0 0 0 0 0 0 0 0 0 0 0 1 1 1 1 1 1 2 2 3 3 3 3 2 2 3 5 6 8 7 6 5 4 4 4 5 5 5
0 0 0 0 0 0 0 0 0 0 0 0 0 0 0 0 0 0 1 1 1 1 1 1 2 2 1 1 1 1 1 1 2 3 4 5 4 4 3 3 3 3 4 4
0 0 0 0 0 0 0 0 0 0 0 0 0 0 0 0 0 0 0 1 1 1 1 1 1 1 1 1 1 1 1 1 1 1 2 2 3 3 3 3 3 2 2 3
0 0 0 0 0 0 0 0 0 0 0 0 0 0 0 0 0 0 0 1 1 1 1 1 1 1 1 0 0 0 1 0 0 1 2 2 2 3 4 4 3 2 2 2
0 0 0 0 0 0 0 0 0 0 0 0 0 0 0 0 0 0 0 1 1 1 1 1 1 1 1 1 0 0 0 0 0 1 2 2 2 3 3 4 3 2 2 2
0 0 0 0 0 0 0 0 0 0 0 0 0 0 0 0 0 0 0 1 1 1 1 1 1 1 1 1 0 0 0 0 0 0 1 1 2 2 2 2 2 2 2 2
0 0 0 0 0 0 0 0 0 0 0 0 0 0 0 0 0 0 0 0 1 1 1 1 1 1 1 1 1 0 0 0 0 0 0 1 1 1 1 1 1 1 2 2
0 0 0 0 0 0 0 0 0 0 0 0 0 0 0 0 0 0 0 0 0 0 0 0 1 1 1 1 1 1 0 0 0 0 0 0 0 0 0 0 0 1 1 1
0 0 0 0 0 0 0 0 0 0 0 0 0 0 0 0 0 0 0 0 0 0 0 0 0 0 1 1 1 1 1 0 0 0 0 0 0 0 0 0 0 0 0 0
0 0 0 0 0 0 0 0 0 0 0 0 0 0 0 0 0 0 0 0 0 0 0 0 0 0 0 1 1 1 1 1 0 0 0 0 0 0 0 0 0 0 0 0
0 0 0 0 0 0 0 0 0 0 0 0 0 0 0 0 0 0 0 0 0 0 0 0 0 0 0 1 1 1 1 1 1 0 0 0 0 0 0 0 0 0 0 0
0 0 0 0 0 0 0 0 0 0 0 0 0 0 0 0 0 0 0 0 0 0 0 0 0 0 0 0 1 1 1 1 1 0 0 0 0 0 0 0 0 0 0 0
0 0 0 0 0 0 0 0 0 0 0 0 0 0 0 0 0 0 0 0 0 0 0 0 0 0 0 0 0 1 1 1 1 0 0 0 0 0 0 0 0 0 0 0
0 0 0 0 0 0 0 0 0 0 0 0 0 0 0 0 0 0 0 0 0 0 0 0 0 0 0 0 0 0 1 1 1 0 0 0 0 0 0 0 0 0 0 0
0 0 0 0 0 0 0 0 0 0 0 0 0 0 0 0 0 0 0 0 0 0 0 0 0 0 0 0 0 0 1 1 1 0 0 0 0 0 0 0 0 0 0 0
Wind_Speed
4 5 1 4 4 4 2 2 4 6 4 1 3 4 5 3 1 1 1 2 2 2 1 1 1 2 3 3 3 4 4 3 3 3 2 2 2 2 1 2 2 3 3 3
6 3 5 2 2 2 2 1 4 5 3 0 2 4 4 2 2 3 3 3 2 1 1 1 1 1 2 3 3 3 3 3 2 2 2 2 1 1 2 1 2 2 3 3
2 6 2 1 1 1 2 3 4 4 3 3 2 5 4 3 2 2 2 3 2 2 2 2 2 2 2 3 4 4 3 3 3 2 1 1 1 0 0 1 1 2 2 2
2 4 2 3 2 1 4 4 4 2 1 3 2 4 6 4 4 3 4 3 3 2 2 2 2 2 3 3 3 3 3 2 2 2 2 3 2 3 3 2 1 1 1 2
4 3 2 2 4 1 3 2 1 0 1 2 3 1 8 3 4 6 5 4 4 3 2 2 2 3 2 2 2 2 2 2 2 2 3 3 3 3 1 1 1 1 1 2
4 3 1 2 2 1 0 4 4 4 4 2 2 1 7 4 5 5 5 4 4 3 2 1 1 2 1 1 1 1 1 1 2 2 3 3 3 2 1 1 1 1 1 1
8 7 5 2 3 5 5 5 5 6 5 5 2 2 9 6 4 4 5 5 3 2 2 1 1 1 1 1 1 1 1 2 1 2 3 3 3 3 3 2 2 2 1 0
4 7 6 4 2 2 1 4 4 3 4 6 4 5 7 4 3 3 3 3 2 2 1 2 2 1 1 2 1 1 2 2 1 1 2 2 2 2 2 2 2 2 1 1
1 5 6 4 3 1 1 1 3 4 1 3 6 6 8 2 4 4 5 4 3 2 1 2 1 1 1 1 1 1 1 1 1 1 1 1 2 2 2 1 1 2 1 1
1 5 6 6 3 4 2 3 4 3 0 4 6 5 5 6 6 6 5 5 4 3 1 1 0 0 1 0 1 1 1 1 1 1 1 1 1 2 2 2 1 1 1 1
2 1 6 5 3 4 3 3 3 2 3 2 4 7 5 5 5 5 6 5 5 3 2 1 1 0 1 1 2 1 1 1 1 1 1 0 0 1 1 2 2 2 1 1
2 2 3 6 5 2 1 2 4 1 3 3 3 9 5 3 4 4 6 5 4 3 2 1 0 1 2 1 1 1 1 0 0 0 1 1 1 2 1 1 1 1 1 1
2 3 4 8 7 5 3 1 1 2 2 3 4 9 4 5 7 6 5 5 4 3 1 1 1 1 1 1 2 1 1 1 1 2 1 1 1 1 1 1 0 0 1 1
2 2 4 6 7 5 7 7 4 2 3 5 7 10 9 9 8 7 5 4 3 2 1 0 1 0 0 1 0 1 1 1 1 2 2 2 1 1 0 1 0 0 1 1
3 2 5 8 8 6 8 9 6 5 6 6 8 7 8 8 7 5 4 2 2 3 1 1 1 1 0 1 1 1 0 1 1 1 1 1 0 1 1 1 1 1 1 1
2 2 3 6 6 7 8 7 6 5 5 5 6 7 6 6 4 4 3 2 2 3 2 2 1 1 1 1 1 0 0 0 1 1 0 0 0 0 0 1 1 1 1 1
1 1 1 6 7 5 5 4 4 3 2 2 4 6 7 7 6 5 4 2 2 2 2 2 2 2 2 2 2 1 1 0 1 1 0 0 0 0 0 1 1 1 0 0
3 2 1 3 4 4 6 2 2 2 2 2 3 5 7 7 6 5 2 2 2 2 2 2 2 2 2 1 1 1 1 1 1 0 0 1 1 1 0 0 0 0 0 0
4 4 1 0 3 7 5 3 3 3 4 3 5 7 7 6 5 4 2 2 3 3 3 3 2 2 1 1 1 1 0 0 1 1 1 2 2 2 1 0 0 0 0 1
3 2 2 1 3 5 5 6 6 2 4 5 6 7 7 6 6 6 4 4 4 3 2 1 1 0 1 1 1 1 2 1 2 3 3 2 2 2 2 1 0 0 0 1
4 3 0 3 5 7 4 7 5 3 6 8 7 6 5 5 6 7 5 4 3 2 2 1 1 1 2 2 1 2 3 4 4 3 2 2 2 2 2 1 1 0 0 1
2 2 2 2 3 6 4 5 2 6 8 8 7 6 6 7 7 5 4 4 3 2 2 2 1 2 2 1 2 2 4 4 2 2 1 1 1 1 1 1 1 0 1 1
4 5 4 5 7 7 5 5 7 6 8 8 7 7 6 7 7 6 5 4 4 3 3 2 2 2 2 2 2 3 5 2 1 2 1 1 1 1 1 1 1 0 0 0
5 2 3 6 9 9 9 8 8 8 8 9 8 7 6 7 7 6 5 4 4 3 3 2 2 2 2 3 3 4 3 2 2 2 1 1 1 0 0 0 1 1 1 1
6 3 4 9 11 10 7 7 9 10 9 8 8 7 6 6 6 5 4 5 4 3 3 3 3 3 4 3 3 3 1 2 3 2 2 1 1 1 0 1 1 2 3 3
6 7 7 10 9 8 13 11 10 9 9 9 8 8 7 5 5 5 4 4 3 3 3 3 3 3 3 3 3 2 2 3 3 2 2 1 1 1 1 0 2 2 2 3
Wind_Direction
21 53 334 258 203 201 199 221 272 273 275 307 275 286 299 308 345 324 276 225 219 229 220 151 142 133 133 143 157 170 171 173 161 165 180 198 210 218 221 220 217 208 207 195
26 327 255 239 186 165 188 255 274 286 306 206 289 302 291 267 236 231 234 234 227 264 357 45 140 129 141 166 174 168 180 180 174 186 184 183 187 222 222 243 236 214 205 193
205 261 305 10 354 17 266 218 246 260 327 14 358 323 306 301 305 293 282 251 249 217 241 241 194 174 172 186 183 179 185 186 187 188 149 113 81 31 273 244 241 229 192 163
280 296 357 10 323 200 276 260 235 246 6 314 15 295 290 299 308 292 289 291 284 265 238 226 217 198 192 197 182 170 171 176 189 172 171 173 193 217 225 218 212 197 163 137
300 326 7 345 294 230 250 327 22 334 143 353 2 213 287 321 293 279 276 274 273 265 237 227 221 200 200 187 170 163 159 174 167 162 193 185 204 219 222 200 162 151 139 124
287 308 279 263 304 348 42 33 37 49 66 355 278 195 279 264 251 282 288 280 266 258 256 246 211 153 145 140 150 148 151 203 191 177 194 194 198 192 185 196 175 170 127 108
338 335 334 346 353 359 42 55 13 358 6 263 287 235 252 259 260 260 275 285 280 267 264 269 248 180 170 174 187 173 183 236 227 197 198 201 195 182 192 200 190 172 147 129
353 317 321 343 312 280 340 127 150 238 251 281 312 250 256 269 293 297 303 305 318 300 272 247 231 200 197 211 203 193 199 240 242 202 213 217 205 192 207 203 190 179 180 198
318 282 301 320 327 101 39 67 167 150 257 285 282 286 303 327 344 340 339 342 321 299 262 231 202 192 203 222 218 215 182 200 217 199 200 214 212 198 209 216 187 182 189 190
237 280 297 312 8 22 82 137 75 83 279 286 293 288 276 298 307 317 325 317 309 324 326 302 170 80 109 137 54 62 118 164 212 189 194 202 219 207 202 187 204 215 214 183
29 268 309 347 356 308 1 48 79 107 171 196 284 277 249 265 281 290 300 311 310 302 286 283 303 44 59 63 69 59 80 113 169 167 167 99 290 199 188 190 202 205 211 206
7 102 295 286 281 281 210 153 132 143 266 208 234 269 281 280 299 303 306 311 312 301 298 297 78 73 57 53 65 79 84 85 291 70 97 65 52 78 91 196 181 192 190 193
3 61 347 337 341 353 352 312 184 160 172 201 222 267 311 345 337 324 311 307 314 319 333 36 85 81 56 26 10 15 21 15 35 57 71 77 69 75 69 26 17 105 140 148
62 143 187 234 256 286 298 297 287 197 221 242 240 270 311 325 323 320 311 292 301 317 305 137 148 148 59 44 40 350 346 14 44 76 100 104 96 106 94 59 49 44 85 102
72 236 243 254 268 273 274 285 285 252 234 238 271 277 292 300 300 302 298 295 323 326 310 245 226 210 26 5 3 12 347 58 74 89 114 128 140 137 119 87 61 53 58 78
49 239 283 284 277 280 278 288 288 278 271 266 286 287 301 313 326 329 320 304 308 300 297 283 259 216 209 214 232 298 332 66 113 117 113 69 93 108 119 120 79 63 58 48
272 196 297 281 300 311 281 268 272 273 279 265 277 289 318 329 323 309 298 297 291 301 305 259 243 241 245 225 203 208 235 123 130 144 140 270 272 299 265 105 90 82 63 49
181 158 188 292 345 273 254 269 282 259 300 313 304 318 326 316 308 293 272 260 289 311 304 269 244 249 264 256 220 201 164 160 147 179 234 223 213 237 284 84 115 294 8 27
169 157 165 189 282 279 291 340 337 292 293 1 340 333 337 335 331 310 307 293 271 276 269 255 233 231 231 256 224 157 178 194 186 224 234 223 202 196 184 198 305 333 16 348
48 93 131 197 262 265 283 322 319 297 287 346 341 327 326 340 326 297 309 314 307 305 281 257 255 240 239 260 205 179 209 219 229 235 237 225 205 194 198 206 209 229 179 274
352 360 256 237 253 268 299 328 3 20 293 314 313 306 302 279 265 280 290 295 282 277 270 246 223 230 244 240 191 220 228 233 233 228 218 205 204 203 200 178 180 186 32 352
256 272 264 237 251 265 325 358 348 269 289 300 297 291 286 288 289 291 282 275 274 273 256 217 220 260 269 231 205 246 253 248 230 200 183 179 209 213 169 163 197 180 135 15
231 209 215 217 238 263 293 280 280 279 288 292 291 290 286 289 289 288 280 273 275 254 234 211 211 258 284 250 223 243 266 251 190 166 169 176 196 190 165 171 189 193 149 170
278 253 245 274 274 284 290 291 294 292 289 291 288 285 280 280 282 279 278 272 269 253 232 211 195 234 265 262 250 252 261 206 165 163 176 163 166 186 96 156 187 203 224 233
251 273 267 269 282 297 289 293 299 305 305 302 301 292 280 276 276 266 270 263 256 245 237 206 208 228 252 261 264 261 218 165 164 170 174 160 170 157 79 348 258 234 244 218
223 226 241 260 270 277 286 292 296 297 295 294 299 302 294 276 265 263 264 255 240 239 239 220 222 231 249 253 257 243 201 167 161 160 165 161 164 156 156 300 338 327 269 279